sat.trackr.live / text

‹ back to catalog

STARLINK-35488

NORAD 66254 · 2025-245W

PAYLOAD ACTIVE UNKNOWN

§ Identity

Operator
Country
US
Launch date
2025-10-29
Launch site
AFETR
Launch vehicle
Mass (kg)
RCS (m²)

Purposes: comms

External: N2YO · Heavens-Above · Gunter

§ Orbital elements

Epoch: 2026-09-20T21:55:15.007296Z

Period
94.01 min
Inclination
53.1573°
Eccentricity
0.0002364
Mean motion
15.31672595 rev/d
Perigee alt
469.2 km
Apogee alt
472.4 km
Semi-major
6,849.0 km
B*
5.4017e-5
RAAN
95.8553°
Arg perigee
101.2776°
Mean anomaly
258.8491°
Rev number
5,116

§ Raw data

STARLINK-354881 66254U 25245W   26263.91336814  .00001309  00000+0  54017-4 0  99982 66254  53.1573  95.8553 0002364 101.2776 258.8491 15.31672595 51167

JSON: /api/v1/satellites/66254 · /tle

For live sub-satellite position, see the globe view (requires WebGL).

§ Visibility from observer

Set your observer location to see the next 7 days of passes ≥ 10°. The values pass through the URL so the page stays shareable.

No JS? Fill the form by hand. The geolocation button needs JavaScript.